#timestamp,LO_Frequency,Hit,StdDev 
1644966015.2,286046998.9,N
1644966035.1,286046998.1,N
1644966036.0,286046998.1,N
1644966055.8,286047000.5,N
1644966075.7,286047001.2,N
1644966095.5,286046999.4,N
1644966115.3,286046996.6,N
1644966135.2,286046996.7,N
1644966155.0,286046996.9,N
1644966155.9,286046996.9,N
1644966175.8,286046996.9,N
1644966195.6,286046999.1,N
1644966215.4,286046998.9,N
1644966235.3,286046998.6,N
1644966255.1,286046999.0,N
1644966275.9,286047000.9,N
1644966295.7,286047000.8,N
1644966315.5,286046998.1,N
1644966335.4,286046998.4,N
1644966355.2,286046999.1,N
1644966375.1,286046997.2,N
1644966376.0,286046997.2,N
1644966395.8,286046996.5,N
1644966415.6,286046999.6,N
1644966435.5,286046998.7,N
1644966455.3,286046998.2,N
1644966475.1,286046997.0,N
1644966495.9,286046997.2,N
1644966515.7,286046999.3,N
1644966535.6,286046999.3,N
1644966555.4,286046996.5,N
1644966575.2,286046998.8,N
1644966595.1,286046997.0,N
1644966596.0,286046997.0,N
1644966615.8,286046997.2,N
1644966635.7,286046996.7,N
1644966655.5,286046999.1,N
1644966675.3,286046999.5,N
1644966695.2,286046999.5,N
1644966715.9,286046999.5,N
1644966735.7,286046998.3,N
1644966755.6,286046996.5,N
1644966775.4,286046997.7,N
1644966795.3,286046998.0,N
1644966815.1,286046997.9,N
1644966816.0,286046997.9,N
1644966835.8,286046995.0,Y
1644966855.7,286047001.1,P
1644966875.5,286046998.2,N
1644966895.4,286047000.7,N
1644966915.2,286047000.7,N
1644966935.0,286046998.5,N
1644966935.9,286046998.5,N
1644966955.8,286046998.7,N
1644966975.6,286047001.1,N
1644966995.4,286046998.1,N
1644967015.3,286047001.1,N
1644967035.1,286046998.7,N
1644967055.9,286046998.5,N
1644967075.7,286046998.9,N
1644967095.5,286046996.6,N
1644967115.4,286046997.1,N
1644967135.2,286046995.3,Y
1644967155.0,286046997.6,P
1644967155.9,286046997.6,P
1644967175.8,286046996.7,P
1644967195.6,286046999.0,N
1644967215.5,286046997.2,Y
1644967235.3,286046998.3,P
1644967255.1,286046998.5,P
1644967275.9,286046998.9,P
1644967295.7,286046998.8,Y
1644967315.6,286047000.4,P
1644967335.4,286046999.7,N
1644967355.2,286047002.2,N
1644967375.1,286047002.2,N
1644967376.0,286047002.2,N
1644967395.8,286047002.2,N
1644967415.7,286047002.0,N
1644967435.5,286047002.5,N
1644967455.3,286047002.3,N
1644967475.2,286047002.8,N
1644967495.9,286047002.5,N
1644967515.7,286046999.7,N
1644967535.6,286047002.2,N
1644967555.4,286047001.8,N
1644967575.3,286047003.9,Y
1644967595.1,286047001.7,P
1644967596.0,286047001.7,P
1644967615.8,286047000.3,P
1644967635.7,286047000.1,N
1644967655.5,286047000.3,N
1644967675.3,286047002.4,Y
1644967695.2,286047000.7,P
1644967715.0,286046998.2,P
1644967715.9,286046998.2,N
1644967735.8,286046999.1,N
1644967755.6,286046998.4,N
1644967775.4,286046998.5,N
1644967795.3,286046998.5,N
1644967815.1,286046999.5,N
1644967835.9,286046999.1,N
1644967855.7,286046996.6,Y
1644967875.5,286046998.2,P
1644967895.4,286046998.7,N
1644967915.2,286046998.1,P
1644967935.1,286046999.0,N
1644967936.0,286046999.0,N
1644967955.8,286046999.5,N
1644967975.6,286046999.1,N
1644967995.5,286046998.9,N
1644968015.3,286046999.5,N
1644968035.1,286046999.2,N
1644968055.9,286046996.9,Y
1644968075.7,286046998.9,P
1644968095.6,286046999.3,P
1644968115.4,286046998.6,P
1644968135.2,286046999.2,Y
1644968155.1,286047000.8,P
1644968156.0,286047000.8,N
1644968175.8,286046998.5,N
1644968195.7,286046998.2,N
1644968215.5,286046999.3,N
1644968235.3,286046998.8,N
1644968255.2,286046998.5,N
1644968275.0,286047000.6,N
1644968275.9,286047000.6,N
1644968295.8,286047000.3,N
1644968315.6,286047002.6,N
1644968335.4,286047002.3,N
1644968355.3,286047002.8,N
1644968375.1,286047000.6,N
1644968395.8,286047000.1,N
1644968415.7,286047002.7,N
1644968435.5,286047002.2,N
1644968455.3,286047002.6,N
1644968475.2,286046999.9,N
1644968495.0,286047000.4,N
1644968495.9,286047000.4,N
1644968515.8,286047001.0,N
1644968535.6,286047000.9,N
1644968555.4,286046999.7,N
1644968575.3,286047002.6,N
1644968595.1,286047002.2,N
1644968615.9,286047002.4,N
1644968635.7,286047002.2,N
1644968655.5,286047002.3,N
1644968675.4,286047002.5,N
1644968695.2,286047001.8,N
1644968715.0,286047001.3,N
1644968716.0,286047001.3,N
1644968735.8,286047002.7,N
1644968755.6,286047002.3,N
1644968775.5,286046999.7,N
1644968795.3,286047002.3,N
1644968815.1,286047002.7,N
1644968835.9,286047002.7,N
1644968855.7,286047001.6,N
1644968875.6,286047002.0,N
1644968895.4,286047002.2,N
1644968915.2,286047001.7,N
1644968935.1,286047003.2,Y
1644968936.0,286047003.2,P
1644968955.8,286047004.2,P
1644968975.6,286047001.9,N
1644968995.5,286047004.1,Y
1644969015.3,286047000.4,P
1644969035.2,286047001.2,N
1644969055.9,286047001.0,N
1644969075.7,286047001.1,N
1644969095.6,286047000.9,N
1644969115.4,286047000.3,N
1644969135.2,286047001.1,N
1644969155.1,286046998.1,N
1644969156.0,286046998.1,N
1644969175.8,286046998.1,N
1644969195.7,286046998.7,N
1644969215.5,286046998.2,N
1644969235.3,286047000.3,N
1644969255.2,286046998.8,N
1644969275.0,286046996.7,N
1644969275.9,286046996.7,N
1644969295.8,286046996.5,N
1644969315.6,286046999.3,N
1644969335.4,286046999.4,N
1644969355.3,286046998.7,N
1644969375.1,286046998.9,N
1644969395.8,286046998.3,N
1644969415.7,286046998.5,N
1644969435.5,286046998.5,N
1644969455.3,286046998.6,N
1644969475.2,286047001.2,N
1644969495.0,286046998.2,N
1644969495.9,286046998.2,N
1644969515.8,286047000.6,N
1644969535.6,286047001.4,N
1644969555.4,286047001.3,N
1644969575.3,286047003.0,N
1644969595.1,286047002.1,N
